Weather History for KPOE - January, 2013

Change the Weather History Date:

Thursday, January 31, 2013

  Actual Average Record
Temperature  
Mean Temperature 46 °F -  
Max Temperature 62 °F 58 °F 78 °F (2002)
Min Temperature 30 °F 40 °F 30 °F (2000)
Degree Days  
Heating Degree Days 19    
Moisture  
Dew Point 28 °F    
Average Humidity 54    
Maximum Humidity 96    
Minimum Humidity 21    
Precipitation  
Precipitation 0.00 in - - ()
Sea Level Pressure  
Sea Level Pressure 30.26 in    
Wind  
Wind Speed 3 mph (SW)    
Max Wind Speed 13 mph    
Max Gust Speed 18 mph    
Visibility 10 miles    
Events      
Averages and records for this station are not official NWS values.
T = Trace of Precipitation, MM = Missing Value Source: NWS Daily Summary

Daily Weather History Graph

Daily Weather History Graph

Search for Another Location

Airport or City:

Trip Planner

Search our weather history database for the weather conditions in past years. The results will help you decide how hot, cold, wet, or windy it might be!

Date:

Astronomy

Jan. 31, 2013 Rise Set
Actual Time 7:05 AM CST 5:47 PM CST
Civil Twilight 6:39 AM CST 6:13 PM CST
Nautical Twilight 6:10 AM CST 6:42 PM CST
Astronomical Twilight 5:42 AM CST 7:10 PM CST
Moon 10:25 PM CST (1/31) 9:27 AM CST (1/31)
Length of Visible Light 11h 33m
Length of Day
10h 42m
Waning Gibbous, 79% of the Moon is Illuminated
Jan 31
Waning Gibbous
Feb 3
Last Quarter
Feb 10
New
Feb 17
First Quarter
Feb 25
Full

Hourly Weather History & Observations

Time (CST) Temp. Windchill Dew Point Humidity Pressure Visibility Wind Dir Wind Speed Gust Speed Precip Events Conditions
12:55 AM 36.0 °F - 30.9 °F 82% 30.22 in 10.0 mi Calm Calm - N/A   Clear
1:55 AM 35.1 °F - 30.9 °F 85% 30.23 in 10.0 mi Calm Calm - N/A   Clear
2:55 AM 34.0 °F - 30.9 °F 89% 30.22 in 10.0 mi Calm Calm - N/A   Clear
3:55 AM 30.9 °F - 28.9 °F 92% 30.22 in 10.0 mi Calm Calm - N/A   Clear
4:55 AM 30.9 °F - 30.0 °F 96% 30.21 in 10.0 mi Calm Calm - N/A   Clear
5:55 AM 32.0 °F - 28.9 °F 88% 30.23 in 10.0 mi Calm Calm - N/A   Clear
6:55 AM 30.9 °F - 28.9 °F 92% 30.25 in 10.0 mi Calm Calm - N/A   Clear
7:55 AM 35.1 °F - 30.9 °F 85% 30.27 in 10.0 mi Calm Calm - N/A   Clear
8:55 AM 43.0 °F 41.3 °F 30.9 °F 62% 30.30 in 10.0 mi SSW 3.5 mph - N/A   Clear
9:55 AM 50.0 °F - 30.0 °F 46% 30.31 in 10.0 mi Variable 4.6 mph - N/A   Clear
10:55 AM 53.1 °F - 25.0 °F 34% 30.32 in 10.0 mi SW 9.2 mph - N/A   Clear
11:55 AM 57.0 °F - 19.9 °F 24% 30.30 in 10.0 mi WSW 10.4 mph - N/A   Clear
12:55 PM 59.0 °F - 21.0 °F 23% 30.26 in 10.0 mi WSW 9.2 mph - N/A   Clear
1:55 PM 60.1 °F - 19.9 °F 21% 30.25 in 10.0 mi SW 8.1 mph 16.1 mph N/A   Clear
2:55 PM 61.0 °F - 21.0 °F 21% 30.24 in 10.0 mi SW 12.7 mph 16.1 mph N/A   Clear
3:55 PM 62.1 °F - 21.9 °F 21% 30.23 in 10.0 mi SW 11.5 mph 18.4 mph N/A   Clear
4:55 PM 61.0 °F - 21.9 °F 22% 30.23 in 10.0 mi SSW 11.5 mph - N/A   Clear
5:55 PM 57.0 °F - 24.1 °F 28% 30.23 in 10.0 mi South 3.5 mph - N/A   Clear
6:55 PM 54.0 °F - 30.0 °F 40% 30.25 in 10.0 mi South 8.1 mph - N/A   Clear
7:55 PM 52.0 °F - 30.0 °F 43% 30.27 in 10.0 mi SSW 6.9 mph - N/A   Clear
8:55 PM 50.0 °F - 30.0 °F 46% 30.32 in 10.0 mi SSW 3.5 mph - N/A   Clear
9:55 PM 48.9 °F - 30.9 °F 50% 30.32 in 10.0 mi SSW 3.5 mph - N/A   Clear
10:55 PM 48.9 °F - 33.1 °F 54% 30.32 in 10.0 mi Calm Calm - N/A   Clear
11:55 PM 48.9 °F - 34.0 °F 56% 30.32 in 10.0 mi SSW 3.5 mph - N/A   Clear